[[{"header":{"parameterUnit":"m.s-1","parameterCategory":1,"la1":30.2991,"la2":30.254,"lo1":-89.0895,"lo2":-89.0444,"dy":0.0017,"dx":0.0017,"nx":28,"ny":28,"refTime":"2024-05-28T03:00:00:Z","depth":0,"parameterNumber":2,"parameterNumberName":"U-component_of_WINDS"},"data":[0,0,0,0,0,0,0,0,0,0,0,0,0,0,0,0,0,0,0,0,0,0,0,0,0,0,0,0,0,0,0,0,0,0,0,0,0,0,0,0,0,0,0,0,0,0,0,0,0,0,0,0,0,0,0,0,0,0,-3.7143,-3.7142,0,-3.7058,-3.7057,-3.7056,-3.7013,-3.7013,-3.7013,-3.7013,-3.6922,-3.692,-3.6917,0,0,0,0,0,0,0,0,0,0,0,0,0,-3.7264,-3.7262,-3.7143,-3.7142,-3.7141,-3.7059,-3.7057,-3.7056,-3.7013,-3.7013,-3.7013,-3.7013,-3.6923,-3.692,-3.6917,0,0,0,0,0,0,0,0,0,0,0,0,0,-3.7199,-3.7261,-3.7143,-3.711,-3.7106,-3.7059,-3.7057,-3.7056,-3.7013,-3.7013,-3.7013,-3.7013,-3.6924,-3.692,-3.6917,-3.6895,0,0,-3.6905,-3.6904,0,0,0,0,0,0,0,0,-3.7202,-3.7194,-3.7116,-3.7112,-3.7108,-3.7046,-3.7066,-3.7002,-3.7013,-3.7048,-3.7013,-3.7013,-3.6963,-3.6956,-3.694,-3.6891,-3.6887,-3.6905,-3.6903,-3.6901,-3.69,0,0,0,0,0,0,0,-3.7207,-3.7198,-3.7109,-3.7115,-3.711,-3.7098,-3.7088,-3.7054,-3.7007,-3.7045,-3.7042,-3.7033,-3.6961,-3.6944,-3.6938,-3.6885,-3.6905,-3.6902,-3.69,-3.6898,-3.6815,-3.6815,0,0,0,0,0,0,-3.7217,-3.7202,-3.7112,-3.7107,-3.7156,-3.7096,-3.7085,-3.7066,-3.7007,-3.6998,-3.7033,-3.7031,-3.695,-3.6942,-3.6934,-3.6905,-3.6901,-3.6898,-3.6896,-3.6815,-3.6815,-3.6815,0,0,0,0,0,0,-3.722,-3.721,-3.7115,-3.7153,-3.714,-3.7094,-3.7072,-3.7064,-3.7047,-3.6998,-3.6989,-3.7024,-3.695,-3.6939,-3.6906,-3.6902,-3.6896,-3.6893,-3.6815,-3.6815,-3.6815,-3.6847,0,0,0,0,0,0,-3.7224,-3.7211,-3.7203,-3.7154,-3.7139,-3.7089,-3.7072,-3.7063,-3.7042,-3.7039,-3.6987,-3.6979,-3.6949,-3.6911,-3.6902,-3.6897,-3.689,-3.6815,-3.6815,-3.6815,-3.6846,-3.6848,-3.685,0,0,0,0,0,-3.7228,-3.7214,-3.7203,-3.7192,-3.7128,-3.7089,-3.708,-3.7047,-3.7042,-3.7033,-3.7001,-3.698,-3.6904,-3.6908,-3.6897,-3.6891,-3.6815,-3.6815,-3.6815,-3.6845,-3.6848,-3.685,0,0,0,0,0,0,-3.7262,-3.7207,-3.7194,-3.7164,-3.7132,-3.7082,-3.7069,-3.7051,-3.7018,-3.7016,-3.6976,-3.6965,-3.6934,-3.6909,-3.6915,-3.6867,-3.6857,-3.6855,-3.6885,-3.6886,-3.6888,-3.6894,-3.6887,0,0,0,0,0,-3.7267,-3.7241,-3.7194,-3.7172,-3.7157,-3.7116,-3.7098,-3.7076,-3.704,-3.7026,-3.6991,-3.6957,-3.6925,-3.6904,-3.6872,-3.6843,-3.6831,-3.6833,-3.6835,-3.6837,-3.6835,-3.6818,-3.6819,-3.6814,-3.6814,-3.6814,0,0,-3.7275,-3.7241,-3.7227,-3.7178,-3.715,-3.7124,-3.7105,-3.7077,-3.7057,-3.7021,-3.6987,-3.6961,-3.692,-3.6888,-3.6873,-3.6866,-3.6834,-3.6837,-3.6839,-3.6836,-3.6818,-3.6819,-3.6819,-3.6814,-3.6814,-3.6814,0,0,-3.7275,-3.7248,-3.7227,-3.7201,-3.716,-3.7134,-3.7129,-3.7082,-3.7064,-3.7031,-3.7004,-3.6978,-3.6924,-3.6896,-3.6874,-3.6868,-3.6847,-3.6858,-3.6867,-3.6851,-3.6852,-3.6852,-3.6849,-3.6849,-3.6857,-3.6857,-3.6857,0,-3.729,-3.725,-3.7218,-3.7193,-3.7172,-3.7141,-3.7119,-3.7094,-3.7045,-3.703,-3.7025,-3.6957,-3.6927,-3.6889,-3.6888,-3.6871,-3.6864,-3.6863,-3.6855,-3.6854,-3.6854,-3.6851,-3.685,-3.6858,-3.6858,-3.6858,-3.6858,0,-3.727,-3.7243,-3.7231,-3.7186,-3.7164,-3.714,-3.7104,-3.7085,-3.7065,-3.7039,-3.7005,-3.6969,-3.6929,-3.6919,-3.6898,-3.6878,-3.6875,-3.6863,-3.6852,-3.6857,-3.6853,-3.6852,-3.6861,-3.686,-3.686,-3.6859,0,0,-3.7287,-3.7228,-3.7224,-3.7203,-3.7158,-3.7135,-3.7111,-3.7074,-3.7058,-3.7026,-3.7003,-3.696,-3.6949,-3.6924,-3.6901,-3.6887,-3.6884,-3.6876,-3.6874,-3.6878,-3.6859,-3.6868,-3.6868,-3.6871,-3.6871,-3.6871,-3.6863,0,-3.7281,-3.7237,-3.7209,-3.7175,-3.7149,-3.7121,-3.7099,-3.7068,-3.7044,-3.7018,-3.699,-3.696,-3.6948,-3.6933,-3.6918,-3.6888,-3.6879,-3.6888,-3.6849,-3.6848,-3.6859,-3.6866,-3.6875,-3.6869,-3.6861,-3.6861,-3.6861,0,-3.7268,-3.7238,-3.7203,-3.7162,-3.715,-3.7131,-3.7096,-3.7072,-3.7036,-3.7019,-3.6994,-3.6971,-3.6943,-3.6936,-3.6896,-3.6903,-3.6885,-3.6868,-3.6867,-3.6861,-3.6854,-3.6859,-3.6866,-3.6865,-3.6858,-3.6858,-3.6858,0,-3.7284,-3.7235,-3.7208,-3.7192,-3.7143,-3.713,-3.7109,-3.7074,-3.7054,-3.7023,-3.7009,-3.6975,-3.6956,-3.6929,-3.6897,-3.6895,-3.6861,-3.6851,-3.6845,-3.6846,-3.6838,-3.6839,-3.6842,-3.6829,-3.6829,-3.6829,-3.6829,0,-3.7279,-3.7259,-3.7215,-3.7198,-3.7174,-3.7142,-3.7118,-3.7095,-3.7064,-3.7041,-3.7014,-3.6993,-3.6953,-3.6927,-3.6902,-3.6873,-3.6864,-3.6849,-3.6843,-3.6851,-3.6853,-3.6838,-3.6837,-3.6829,-3.6829,-3.6829,-3.6829,0,-3.7293,-3.7263,-3.7231,-3.7188,-3.7177,-3.7161,-3.7124,-3.7106,-3.7081,-3.7053,-3.7045,-3.7005,-3.6973,-3.6939,-3.6895,-3.6878,-3.685,-3.6842,-3.6863,-3.6859,-3.6855,-3.6855,-3.6847,-3.6844,-3.6835,-3.6835,-3.6835,0,-3.7291,-3.7275,-3.7231,-3.7215,-3.7195,-3.7169,-3.715,-3.7118,-3.7098,-3.7058,-3.7045,-3.7011,-3.6983,-3.6933,-3.69,-3.6866,-3.6856,-3.6855,-3.685,-3.686,-3.6855,-3.6856,-3.6854,-3.6856,-3.6857,-3.6857,-3.6857,0,-3.7292,-3.7279,-3.7252,-3.7221,-3.7199,-3.7172,-3.7144,-3.7132,-3.7095,-3.7074,-3.7042,-3.702,-3.6977,-3.6944,-3.6907,-3.6883,-3.6864,-3.6859,-3.6856,-3.6864,-3.6877,-3.6869,-3.6866,-3.6859,-3.6859,-3.6859,-3.6859,-3.6859,-3.7297,-3.7282,-3.7249,-3.7221,-3.7197,-3.7173,-3.7154,-3.7128,-3.7102,-3.7065,-3.7047,-3.7016,-3.6981,-3.693,-3.6908,-3.6882,-3.6875,-3.6871,-3.6869,-3.6868,-3.6871,-3.6882,-3.6875,-3.6875,-3.6874,-3.6874,-3.6874,0,-3.7296,-3.7275,-3.7249,-3.7212,-3.719,-3.7176,-3.7145,-3.7127,-3.71,-3.707,-3.7044,-3.7008,-3.6976,-3.6941,-3.6907,-3.6893,-3.6883,-3.6885,-3.6885,-3.688,-3.6878,-3.6884,-3.6894,-3.6894,-3.6894,-3.6894,-3.6894,-3.6894,-3.7293,-3.7266,-3.725,-3.7211,-3.7189,-3.7159,-3.7143,-3.7119,-3.7096,-3.7057,-3.7032,-3.701,-3.6978,-3.6942,-3.6912,-3.6903,-3.6891,-3.6896,-3.6884,-3.6882,-3.688,-3.6879,-3.6884,-3.6894,-3.6894,-3.6888,-3.6888,-3.6888]},{"header":{"parameterUnit":"m.s-1","parameterCategory":1,"la1":30.2991,"la2":30.254,"lo1":-89.0895,"lo2":-89.0444,"dy":0.0017,"dx":0.0017,"nx":28,"ny":28,"refTime":"2024-05-28T03:00:00:Z","depth":0,"parameterNumber":3,"parameterNumberName":"V-component_of_WINDS"},"data":[0,0,0,0,0,0,0,0,0,0,0,0,0,0,0,0,0,0,0,0,0,0,0,0,0,0,0,0,0,0,0,0,0,0,0,0,0,0,0,0,0,0,0,0,0,0,0,0,0,0,0,0,0,0,0,0,0,0,1.4816,1.4816,0,1.4814,1.4814,1.4814,1.4871,1.4873,1.4874,1.4876,1.4867,1.4866,1.4864,0,0,0,0,0,0,0,0,0,0,0,0,0,1.4865,1.4864,1.4816,1.4816,1.4816,1.4814,1.4814,1.4814,1.4871,1.4873,1.4875,1.4876,1.4868,1.4866,1.4864,0,0,0,0,0,0,0,0,0,0,0,0,0,1.4851,1.4863,1.4816,1.4844,1.4847,1.4814,1.4814,1.4814,1.487,1.4873,1.4875,1.4877,1.4869,1.4866,1.4864,1.4802,0,0,1.4856,1.4855,0,0,0,0,0,0,0,0,1.4852,1.4849,1.484,1.4842,1.4845,1.4845,1.4828,1.481,1.487,1.4861,1.4876,1.4878,1.4858,1.4856,1.4851,1.4802,1.4801,1.4856,1.4854,1.4853,1.4853,0,0,0,0,0,0,0,1.4853,1.485,1.4815,1.484,1.4843,1.4856,1.4856,1.4825,1.4846,1.4862,1.4866,1.4866,1.486,1.4853,1.4851,1.4801,1.4856,1.4854,1.4852,1.4851,1.4702,1.47,0,0,0,0,0,0,1.485,1.485,1.4815,1.4815,1.4854,1.4853,1.4854,1.4843,1.4847,1.485,1.4864,1.4868,1.4856,1.4854,1.4851,1.4779,1.4853,1.4851,1.485,1.4705,1.4702,1.4699,0,0,0,0,0,0,1.4851,1.4847,1.4815,1.4834,1.4831,1.485,1.4837,1.4842,1.4835,1.4848,1.4852,1.4853,1.4858,1.4854,1.4814,1.4779,1.485,1.4848,1.4708,1.4704,1.4701,1.4634,0,0,0,0,0,0,1.4852,1.4847,1.4824,1.4833,1.483,1.478,1.4835,1.484,1.4831,1.4837,1.4839,1.4842,1.4859,1.4818,1.4812,1.4777,1.4846,1.4711,1.4706,1.4702,1.464,1.4629,1.462,0,0,0,0,0,1.4854,1.4804,1.4823,1.4818,1.4802,1.4778,1.4776,1.4799,1.4828,1.4805,1.4814,1.4842,1.4785,1.4813,1.4807,1.4771,1.4713,1.4707,1.4702,1.4644,1.4631,1.462,0,0,0,0,0,0,1.4788,1.4806,1.4826,1.4778,1.4776,1.4787,1.4759,1.4784,1.4771,1.4777,1.4805,1.4805,1.476,1.4762,1.4793,1.4712,1.4754,1.4747,1.4712,1.47,1.469,1.4689,1.4844,0,0,0,0,0,1.4768,1.4749,1.4765,1.472,1.4719,1.4739,1.4729,1.4748,1.4746,1.4744,1.475,1.4746,1.4727,1.4714,1.4697,1.4641,1.4642,1.4614,1.4604,1.4595,1.4588,1.4559,1.4546,1.4681,1.4681,1.4681,0,0,1.4726,1.4734,1.4719,1.4707,1.4708,1.4686,1.4738,1.4711,1.4695,1.474,1.4703,1.4707,1.4704,1.4656,1.4635,1.4656,1.4552,1.4588,1.4582,1.4579,1.4552,1.4539,1.4527,1.4677,1.4678,1.4679,0,0,1.4638,1.4642,1.4606,1.4607,1.4608,1.4623,1.4614,1.4622,1.4627,1.4591,1.4625,1.4605,1.4572,1.4569,1.4563,1.4477,1.4502,1.4471,1.4417,1.4388,1.4378,1.4368,1.4337,1.4325,1.4464,1.4464,1.4464,0,1.4585,1.4554,1.4584,1.4556,1.455,1.4593,1.4556,1.4555,1.455,1.4544,1.4568,1.4529,1.453,1.4482,1.4462,1.4456,1.4446,1.4469,1.4377,1.4368,1.436,1.433,1.4318,1.446,1.4461,1.4461,1.4461,0,1.4489,1.4467,1.4438,1.4434,1.4425,1.4393,1.4416,1.4403,1.4423,1.4435,1.4398,1.4401,1.4386,1.4377,1.4395,1.4331,1.4344,1.4373,1.4415,1.4343,1.4315,1.4304,1.4455,1.4456,1.4457,1.4458,0,0,1.4355,1.4372,1.436,1.436,1.4366,1.4349,1.4319,1.4307,1.4295,1.4291,1.4265,1.4238,1.4265,1.4258,1.4277,1.4252,1.4183,1.4284,1.4284,1.4263,1.4112,1.409,1.4076,1.4201,1.4199,1.4197,1.4112,0,1.4269,1.422,1.4247,1.4193,1.4173,1.4216,1.419,1.419,1.42,1.4184,1.4195,1.4175,1.4213,1.4209,1.4187,1.4196,1.4153,1.4203,1.4175,1.4174,1.4173,1.4062,1.4037,1.3956,1.4102,1.41,1.4099,0,1.4161,1.4155,1.41,1.4112,1.4104,1.408,1.4072,1.4057,1.4058,1.4068,1.4062,1.4087,1.4057,1.4102,1.406,1.4094,1.4085,1.4088,1.4086,1.4082,1.413,1.4053,1.3931,1.3918,1.4082,1.4083,1.4084,0,1.4068,1.4046,1.4011,1.4009,1.4022,1.4004,1.4008,1.4013,1.4004,1.3997,1.3992,1.398,1.3973,1.3964,1.3985,1.4015,1.394,1.3986,1.3946,1.3945,1.3926,1.3926,1.3799,1.3923,1.3923,1.3924,1.3924,0,1.3967,1.3931,1.3969,1.3947,1.3909,1.394,1.3901,1.3909,1.3913,1.3893,1.3929,1.3908,1.3939,1.3921,1.3938,1.3901,1.3898,1.3903,1.3908,1.3899,1.3898,1.3891,1.3897,1.392,1.3921,1.3922,1.3922,0,1.3855,1.3879,1.3843,1.386,1.3863,1.3834,1.3847,1.3827,1.3842,1.3815,1.3811,1.3833,1.3814,1.3836,1.3818,1.3829,1.3779,1.3793,1.3779,1.3782,1.374,1.3743,1.3602,1.3585,1.3722,1.372,1.3719,0,1.3788,1.3762,1.3777,1.3767,1.377,1.3753,1.3746,1.3777,1.3767,1.3768,1.3748,1.3733,1.3722,1.3691,1.3704,1.3691,1.3703,1.3655,1.3701,1.3693,1.3701,1.3701,1.3698,1.3644,1.3643,1.3641,1.364,0,1.3667,1.3681,1.367,1.3663,1.3654,1.365,1.3648,1.3638,1.367,1.3657,1.364,1.3632,1.3616,1.36,1.3592,1.3595,1.3622,1.3626,1.3616,1.3606,1.3598,1.3601,1.3751,1.3629,1.363,1.3631,1.3631,1.3632,1.3574,1.3554,1.3561,1.3548,1.3551,1.3549,1.3531,1.3545,1.3532,1.3523,1.3542,1.352,1.3523,1.3515,1.3515,1.3497,1.3518,1.3503,1.3499,1.3494,1.3487,1.3603,1.3496,1.3496,1.3497,1.3497,1.3497,0,1.3454,1.3462,1.345,1.3448,1.3437,1.3468,1.3468,1.3456,1.3437,1.3439,1.343,1.341,1.3396,1.3409,1.3397,1.3381,1.3393,1.3376,1.3377,1.3377,1.347,1.348,1.3367,1.3367,1.3367,1.3367,1.3367,1.3367,1.339,1.3356,1.3371,1.334,1.3348,1.3328,1.3326,1.3324,1.3326,1.3303,1.3293,1.3303,1.3309,1.3299,1.3287,1.3291,1.3284,1.3263,1.3271,1.3357,1.337,1.3382,1.3391,1.3261,1.3261,1.3179,1.3178,1.3178]}]]